Weather Service Report


999 
ASUS44 KBMX 281210
RWRAL 
             
ALABAMA REGIONAL WEATHER ROUNDUP
NATIONAL WEATHER SERVICE BIRMINGHAM AL
700 AM CDT SAT MAY 28 2016

NOTE: "FAIR" INDICATES FEW OR NO CLOUDS BELOW 12,000 FEET
WITH NO SIGNIFICANT WEATHER AND/OR OBSTRUCTIONS TO VISIBILITY.

THE REMARK "TC" DENOTES TEMPERATURE IN DEGREES CELSIUS.

ALZ001>011-014-016>018-020-281300-
NORTH ALABAMA
  
CITY           SKY/WX    TMP DP  RH WIND       PRES   REMARKS
MUSCLE SHOALS  CLOUDY    71  64  78 SE3       30.06R                  
6HR MIN TEMP:  70; 6HR MAX TEMP:  71;                                

HUNTSVILLE     LGT RAIN  74  60  61 S7        30.07R                  
6HR MIN TEMP:  73; 6HR MAX TEMP:  75; 6HR PCP: TRACE;                

DECATUR        LGT RAIN  68  67  96 CALM      30.07R                  
6HR MIN TEMP:  68; 6HR MAX TEMP:  73; 6HR PCP:  0.01;                

HALEYVILLE     FAIR      69  65  86 S3        30.08R                  
6HR MIN TEMP:  69; 6HR MAX TEMP:  71;                                

GADSDEN        CLOUDY    72  62  71 CALM      30.09R                  
6HR MIN TEMP:  71; 6HR MAX TEMP:  76;                                

$$
 
ALZ012-013-022-023-030>036-040>044-281300-
WEST CENTRAL ALABAMA
  
CITY           SKY/WX    TMP DP  RH WIND       PRES   REMARKS
TUSCALOOSA     CLOUDY    72  67  84 SE7       30.04R                  
6HR MIN TEMP:  71; 6HR MAX TEMP:  74; 6HR PCP: TRACE;                

$$
 
ALZ015-024>027-033>036-040>044-281300-
CENTRAL ALABAMA
  
CITY           SKY/WX    TMP DP  RH WIND       PRES   REMARKS
BIRMINGHAM     CLOUDY    72  65  78 NE3       30.09R                  
6HR MIN TEMP:  72; 6HR MAX TEMP:  75; 6HR PCP:  0.01;                

MONTGOMERY     CLOUDY    72  64  76 SE5       30.06R                  
6HR MIN TEMP:  69; 6HR MAX TEMP:  75;                                

SHELBY CO ARPT PTSUNNY   70  65  84 CALM      30.07R                  
6HR MIN TEMP:  69; 6HR MAX TEMP:  73;                                

MAXWELL AFB    CLOUDY    72  64  75 SE8       30.06R                  
6HR MIN TEMP:  70; 6HR MAX TEMP:  73;                                

GREENVILLE     FAIR      70  65  84 SE5       30.06R                  
6HR MIN TEMP:  67; 6HR MAX TEMP:  70;                                

$$
 
ALZ019-021-028-029-037-038-045>048-281300-
EAST CENTRAL ALABAMA
  
CITY           SKY/WX    TMP DP  RH WIND       PRES   REMARKS
ANNISTON       CLOUDY    73  61  65 E5        30.10R                  
6HR MIN TEMP:  71; 6HR MAX TEMP:  75;                                

ALEXANDER CITY CLOUDY    70  67  92 CALM      30.09S                  
6HR MIN TEMP:  67; 6HR MAX TEMP:  73;                                

AUBURN         NOT AVBL                                               
$$
 
ALZ051>064-281300-
SOUTHWEST ALABAMA
  
CITY           SKY/WX    TMP DP  RH WIND       PRES   REMARKS
MOBILE         MOSUNNY   71  68  90 E5        30.03R                  
6HR MIN TEMP:  68; 6HR MAX TEMP:  74;                                

BROOKLEY FIELD MOSUNNY   75  70  84 SE9       30.04R                  
6HR MIN TEMP:  69; 6HR MAX TEMP:  75;                                

EVERGREEN      CLOUDY    69  67  93 CALM      30.06R                  
6HR MIN TEMP:  66; 6HR MAX TEMP:  71; 6HR PCP: TRACE;                

$$

ALZ049-050-065>069-281300-
SOUTHEAST ALABAMA
  
CITY           SKY/WX    TMP DP  RH WIND       PRES   REMARKS
DOTHAN         PTSUNNY   71  65  81 E7        30.11R                  
6HR MIN TEMP:  69; 6HR MAX TEMP:  72;                                

OZARK          MOSUNNY   70  66  86 VRB2      30.06R                  
6HR MIN TEMP:  67; 6HR MAX TEMP:  70;                                

TROY           CLOUDY    72  65  78 VRB5      30.08R                  
6HR MIN TEMP:  67; 6HR MAX TEMP:  72;                                

EUFAULA        CLOUDY    73  64  73 SE3       30.07R                  
6HR MIN TEMP:  67; 6HR MAX TEMP:  73;                                

$$
  

Return to Home page


Western Regional Climate Center, wrcc@dri.edu